Year,Month,Day,Hour,Minute,Value (Times are PST for temperature in C)
2019,01,23,00,00,8.20
2019,01,23,00,01,8.20
2019,01,23,00,02,8.20
2019,01,23,00,03,8.20
2019,01,23,00,04,8.20
2019,01,23,00,05,8.20
2019,01,23,00,06,8.20
2019,01,23,00,07,8.20
2019,01,23,00,09,8.20
2019,01,23,00,10,8.20
2019,01,23,00,11,8.30
2019,01,23,00,12,8.30
2019,01,23,00,13,8.30
2019,01,23,00,14,8.30
2019,01,23,00,15,8.30
2019,01,23,00,16,8.30
2019,01,23,00,17,8.30
2019,01,23,00,18,8.30
2019,01,23,00,19,8.30
2019,01,23,00,20,8.30
2019,01,23,00,21,8.40
2019,01,23,00,22,8.40
2019,01,23,00,23,8.40
2019,01,23,00,24,8.40
2019,01,23,00,25,8.40
2019,01,23,00,26,8.40
2019,01,23,00,27,8.40
2019,01,23,00,28,8.40
2019,01,23,00,29,8.40
2019,01,23,00,30,8.40
2019,01,23,00,32,8.50
2019,01,23,00,33,8.50
2019,01,23,00,34,8.50
2019,01,23,00,35,8.50
2019,01,23,00,36,8.50
2019,01,23,00,37,8.50
2019,01,23,00,38,8.50
2019,01,23,00,39,8.60
2019,01,23,00,40,8.60
2019,01,23,00,41,8.60
2019,01,23,00,42,8.60
2019,01,23,00,43,8.60
2019,01,23,00,44,8.60
2019,01,23,00,45,8.60
2019,01,23,00,46,8.60
2019,01,23,00,47,8.60
2019,01,23,00,48,8.60
2019,01,23,00,49,8.60
2019,01,23,00,50,8.60
2019,01,23,00,51,8.60
2019,01,23,00,52,8.60
2019,01,23,00,53,8.60
2019,01,23,00,54,8.70
2019,01,23,00,55,8.70
2019,01,23,00,56,8.70
2019,01,23,00,57,8.70
2019,01,23,00,58,8.70
2019,01,23,00,59,8.70
2019,01,23,01,00,8.70
2019,01,23,01,01,8.70
2019,01,23,01,02,8.70
2019,01,23,01,03,8.70
2019,01,23,01,04,8.70
2019,01,23,01,05,8.70
2019,01,23,01,06,8.70
2019,01,23,01,07,8.70
2019,01,23,01,08,8.70
2019,01,23,01,09,8.70
2019,01,23,01,10,8.70
2019,01,23,01,11,8.70
2019,01,23,01,12,8.70
2019,01,23,01,13,8.70
2019,01,23,01,14,8.70
2019,01,23,01,15,8.70
2019,01,23,01,16,8.70
2019,01,23,01,17,8.80
2019,01,23,01,18,8.80
2019,01,23,01,19,8.80
2019,01,23,01,20,8.80
2019,01,23,01,21,8.80
2019,01,23,01,22,8.80
2019,01,23,01,23,8.80
2019,01,23,01,24,8.80
2019,01,23,01,25,8.80
2019,01,23,01,26,8.80
2019,01,23,01,27,8.80
2019,01,23,01,28,8.80
2019,01,23,01,29,8.90
2019,01,23,01,30,8.90
2019,01,23,01,31,8.90
2019,01,23,01,32,8.90
2019,01,23,01,33,8.90
2019,01,23,01,34,9.00
2019,01,23,01,35,9.00
2019,01,23,01,36,9.00
2019,01,23,01,37,9.00
2019,01,23,01,38,9.00
2019,01,23,01,39,9.00
2019,01,23,01,40,9.00
2019,01,23,01,41,9.00
2019,01,23,01,42,9.00
2019,01,23,01,43,9.00
2019,01,23,01,44,9.00
2019,01,23,01,45,9.00
2019,01,23,01,46,9.00
2019,01,23,01,47,9.00
2019,01,23,01,48,9.00
2019,01,23,01,49,9.00
2019,01,23,01,50,9.00
2019,01,23,01,51,8.90
2019,01,23,01,52,8.90
2019,01,23,01,53,8.90
2019,01,23,01,54,8.90
2019,01,23,01,55,8.90
2019,01,23,01,56,8.90
2019,01,23,01,57,8.90
2019,01,23,01,58,8.90
2019,01,23,01,59,8.90
2019,01,23,02,00,8.90
2019,01,23,02,01,8.90
2019,01,23,02,02,8.90
2019,01,23,02,03,8.90
2019,01,23,02,04,8.90
2019,01,23,02,05,8.90
2019,01,23,02,06,8.90
2019,01,23,02,07,8.90
2019,01,23,02,08,8.90
2019,01,23,02,09,8.90
2019,01,23,02,11,8.90
2019,01,23,02,13,9.00
2019,01,23,02,14,9.00
2019,01,23,02,16,9.00
2019,01,23,02,17,9.00
2019,01,23,02,18,9.00
2019,01,23,02,19,9.00
2019,01,23,02,21,9.00
2019,01,23,02,22,9.00
2019,01,23,02,23,9.00
2019,01,23,02,24,9.00
2019,01,23,02,26,8.90
2019,01,23,02,27,9.00
2019,01,23,02,28,9.00
2019,01,23,02,29,9.00
2019,01,23,02,31,9.00
2019,01,23,02,32,9.00
2019,01,23,02,33,9.00
2019,01,23,02,34,9.00
2019,01,23,02,36,9.00
2019,01,23,02,37,9.10
2019,01,23,02,38,9.10
2019,01,23,02,39,9.10
2019,01,23,02,41,9.10
2019,01,23,02,42,9.20
2019,01,23,02,43,9.20
2019,01,23,02,44,9.20
2019,01,23,02,46,9.20
2019,01,23,02,47,9.20
2019,01,23,02,48,9.20
2019,01,23,02,49,9.20
2019,01,23,02,51,9.20
2019,01,23,02,52,9.20
2019,01,23,02,53,9.20
2019,01,23,02,54,9.20
2019,01,23,02,55,9.10
2019,01,23,02,56,9.20
2019,01,23,02,57,9.20
2019,01,23,02,58,9.20
2019,01,23,02,59,9.20
2019,01,23,03,01,9.20
2019,01,23,03,02,9.20
2019,01,23,03,03,9.20
2019,01,23,03,04,9.20
2019,01,23,03,05,9.10
2019,01,23,03,06,9.20
2019,01,23,03,07,9.20
2019,01,23,03,08,9.10
2019,01,23,03,09,9.10
2019,01,23,03,11,9.10
2019,01,23,03,12,9.10
2019,01,23,03,13,9.10
2019,01,23,03,14,9.10
2019,01,23,03,16,9.10
2019,01,23,03,17,9.10
2019,01,23,03,18,9.10
2019,01,23,03,19,9.10
2019,01,23,03,21,9.10
2019,01,23,03,24,9.10
2019,01,23,03,26,9.20
2019,01,23,03,27,9.20
2019,01,23,03,28,9.10
2019,01,23,03,29,9.00
2019,01,23,03,31,8.70
2019,01,23,03,33,8.40
2019,01,23,03,34,8.20
2019,01,23,03,37,8.00
2019,01,23,03,38,8.00
2019,01,23,03,39,7.90
2019,01,23,04,29,7.00
2019,01,23,04,30,7.00
2019,01,23,04,31,7.00
2019,01,23,04,32,6.90
2019,01,23,04,33,6.90
2019,01,23,04,34,6.90
2019,01,23,04,35,6.90
2019,01,23,04,36,6.90
2019,01,23,04,37,6.90
2019,01,23,04,38,6.90
2019,01,23,04,39,6.90
2019,01,23,04,40,6.90
2019,01,23,04,41,6.90
2019,01,23,04,42,6.90
2019,01,23,04,43,6.80
2019,01,23,04,44,6.80
2019,01,23,04,45,6.80
2019,01,23,04,46,6.80
2019,01,23,04,47,6.80
2019,01,23,04,48,6.80
2019,01,23,04,49,6.80
2019,01,23,04,50,6.80
2019,01,23,04,51,6.80
2019,01,23,04,52,6.80
2019,01,23,04,53,6.80
2019,01,23,04,54,6.80
2019,01,23,04,55,6.80
2019,01,23,04,56,6.80
2019,01,23,04,57,6.80
2019,01,23,04,59,6.80
2019,01,23,05,01,6.80
2019,01,23,05,02,6.80
2019,01,23,05,03,6.80
2019,01,23,05,04,6.80
2019,01,23,05,06,6.80
2019,01,23,05,07,6.80
2019,01,23,05,08,6.80
2019,01,23,05,09,6.80
2019,01,23,05,11,6.80
2019,01,23,05,12,6.80
2019,01,23,05,13,6.80
2019,01,23,05,14,6.80
2019,01,23,05,16,6.80
2019,01,23,05,17,6.80
2019,01,23,05,18,6.80
2019,01,23,05,19,6.80
2019,01,23,05,21,6.80
2019,01,23,05,22,6.80
2019,01,23,05,23,6.80
2019,01,23,05,24,6.80
2019,01,23,05,26,6.70
2019,01,23,05,27,6.70
2019,01,23,05,28,6.70
2019,01,23,05,29,6.70
2019,01,23,05,31,6.70
2019,01,23,05,32,6.70
2019,01,23,05,33,6.80
2019,01,23,05,34,6.80
2019,01,23,05,36,6.80
2019,01,23,05,37,6.80
2019,01,23,05,38,6.80
2019,01,23,05,39,6.70
2019,01,23,05,41,6.70
2019,01,23,05,42,6.70
2019,01,23,05,43,6.70
2019,01,23,05,44,6.80
2019,01,23,05,46,6.70
2019,01,23,05,47,6.70
2019,01,23,05,48,6.70
2019,01,23,05,49,6.70
2019,01,23,05,51,6.70
2019,01,23,05,52,6.60
2019,01,23,05,53,6.60
2019,01,23,05,54,6.60
2019,01,23,05,56,6.60
2019,01,23,05,57,6.70
2019,01,23,05,58,6.70
2019,01,23,05,59,6.70
2019,01,23,06,01,6.70
2019,01,23,06,02,6.70
2019,01,23,06,03,6.70
2019,01,23,06,04,6.70
2019,01,23,06,06,6.70
2019,01,23,06,07,6.80
2019,01,23,06,08,6.80
2019,01,23,06,09,6.80
2019,01,23,06,11,6.80
2019,01,23,06,12,6.80
2019,01,23,06,13,6.80
2019,01,23,06,14,6.80
2019,01,23,06,16,6.70
2019,01,23,06,17,6.70
2019,01,23,06,18,6.70
2019,01,23,06,19,6.70
2019,01,23,06,21,6.70
2019,01,23,06,22,6.70
2019,01,23,06,23,6.70
2019,01,23,06,24,6.70
2019,01,23,06,25,6.80
2019,01,23,06,26,6.80
2019,01,23,06,27,6.80
2019,01,23,06,28,6.80
2019,01,23,06,29,6.80
2019,01,23,06,30,6.80
2019,01,23,06,32,6.80
2019,01,23,06,33,6.80
2019,01,23,06,34,6.80
2019,01,23,06,35,6.80
2019,01,23,06,36,6.80
2019,01,23,06,37,6.80
2019,01,23,06,38,6.80
2019,01,23,06,39,6.80
2019,01,23,06,40,6.80
2019,01,23,06,41,6.80
2019,01,23,06,42,6.80
2019,01,23,06,43,6.80
2019,01,23,06,44,6.80
2019,01,23,06,45,6.80
2019,01,23,06,46,6.80
2019,01,23,06,47,6.80
2019,01,23,06,48,6.80
2019,01,23,06,49,6.80
2019,01,23,06,50,6.80
2019,01,23,06,51,6.80
2019,01,23,06,52,6.80
2019,01,23,06,53,6.80
2019,01,23,06,54,6.80
2019,01,23,06,55,6.80
2019,01,23,06,56,6.80
2019,01,23,06,57,6.80
2019,01,23,06,58,6.80
2019,01,23,06,59,6.80
2019,01,23,07,00,6.80
2019,01,23,07,01,6.80
2019,01,23,07,02,6.80
2019,01,23,07,03,6.80
2019,01,23,07,04,6.80
2019,01,23,07,05,6.80
2019,01,23,07,06,6.80
2019,01,23,07,07,6.80
2019,01,23,07,08,6.80
2019,01,23,07,09,6.80
2019,01,23,07,10,6.80
2019,01,23,07,11,6.80
2019,01,23,07,12,6.80
2019,01,23,07,13,6.80
2019,01,23,07,14,6.80
2019,01,23,07,15,6.80
2019,01,23,07,16,6.80
2019,01,23,07,17,6.80
2019,01,23,07,18,6.80
2019,01,23,07,19,6.80
2019,01,23,07,20,6.80
2019,01,23,07,21,6.80
2019,01,23,07,22,6.80
2019,01,23,07,23,6.70
2019,01,23,07,24,6.70
2019,01,23,07,25,6.70
2019,01,23,07,26,6.70
2019,01,23,07,27,6.70
2019,01,23,07,28,6.70
2019,01,23,07,29,6.70
2019,01,23,07,30,6.70
2019,01,23,07,31,6.70
2019,01,23,07,32,6.70
2019,01,23,07,33,6.70
2019,01,23,07,34,6.70
2019,01,23,07,35,6.70
2019,01,23,07,36,6.70
2019,01,23,07,37,6.60
2019,01,23,07,38,6.70
2019,01,23,07,39,6.70
2019,01,23,07,40,6.60
2019,01,23,07,41,6.60
2019,01,23,07,42,6.60
2019,01,23,07,43,6.60
2019,01,23,07,44,6.70
2019,01,23,07,45,6.70
2019,01,23,07,46,6.70
2019,01,23,07,47,6.70
2019,01,23,07,48,6.70
2019,01,23,07,49,6.70
2019,01,23,07,50,6.70
2019,01,23,07,51,6.70
2019,01,23,07,52,6.70
2019,01,23,07,53,6.70
2019,01,23,07,54,6.70
2019,01,23,07,55,6.70
2019,01,23,07,56,6.70
2019,01,23,07,57,6.70
2019,01,23,07,58,6.70
2019,01,23,07,59,6.70
2019,01,23,08,00,6.60
2019,01,23,08,01,6.60
2019,01,23,08,02,6.60
2019,01,23,08,03,6.60
2019,01,23,08,04,6.60
2019,01,23,08,05,6.60
2019,01,23,08,06,6.60
2019,01,23,08,07,6.60
2019,01,23,08,08,6.60
2019,01,23,08,09,6.60
2019,01,23,08,10,6.60
2019,01,23,08,11,6.60
2019,01,23,08,12,6.60
2019,01,23,08,13,6.60
2019,01,23,08,14,6.60
2019,01,23,08,15,6.60
2019,01,23,08,16,6.60
2019,01,23,08,17,6.60
2019,01,23,08,18,6.60
2019,01,23,08,19,6.60
2019,01,23,08,20,6.60
2019,01,23,08,21,6.60
2019,01,23,08,22,6.60
2019,01,23,08,23,6.60
2019,01,23,08,24,6.60
2019,01,23,08,25,6.60
2019,01,23,08,26,6.60
2019,01,23,08,27,6.60
2019,01,23,08,28,6.60
2019,01,23,08,29,6.60
2019,01,23,08,30,6.60
2019,01,23,08,31,6.60
2019,01,23,08,32,6.60
2019,01,23,08,33,6.60
2019,01,23,08,34,6.60
2019,01,23,08,35,6.60
2019,01,23,08,36,6.60
2019,01,23,08,37,6.60
2019,01,23,08,38,6.60
2019,01,23,08,39,6.60
2019,01,23,08,40,6.60
2019,01,23,08,41,6.60
2019,01,23,08,42,6.60
2019,01,23,08,43,6.60
2019,01,23,08,44,6.60
2019,01,23,08,45,6.60
2019,01,23,08,46,6.60
2019,01,23,08,47,6.60
2019,01,23,08,48,6.60
2019,01,23,08,49,6.60
2019,01,23,08,50,6.60
2019,01,23,08,51,6.60
2019,01,23,08,52,6.60
2019,01,23,08,53,6.60
2019,01,23,08,54,6.60
2019,01,23,08,55,6.60
2019,01,23,08,56,6.40
2019,01,23,08,57,6.40
2019,01,23,08,58,6.40
2019,01,23,08,59,6.40
2019,01,23,09,00,6.40
2019,01,23,09,01,6.40
2019,01,23,09,02,6.40
2019,01,23,09,03,6.40
2019,01,23,09,04,6.40
2019,01,23,09,05,6.40
2019,01,23,09,06,6.40
2019,01,23,09,07,6.40
2019,01,23,09,08,6.40
2019,01,23,09,09,6.40
2019,01,23,09,10,6.40
2019,01,23,09,11,6.40
2019,01,23,09,12,6.40
2019,01,23,09,13,6.60
2019,01,23,09,14,6.60
2019,01,23,09,15,6.60
2019,01,23,09,16,6.60
2019,01,23,09,17,6.60
2019,01,23,09,18,6.60
2019,01,23,09,19,6.60
2019,01,23,09,20,6.60
2019,01,23,09,21,6.60
2019,01,23,09,22,6.60
2019,01,23,09,23,6.60
2019,01,23,09,24,6.70
2019,01,23,09,26,6.70
2019,01,23,09,27,6.70
2019,01,23,09,28,6.70
2019,01,23,09,29,6.80
2019,01,23,09,31,6.80
2019,01,23,09,32,6.80
2019,01,23,09,33,6.80
2019,01,23,09,34,6.80
2019,01,23,09,36,6.80
2019,01,23,09,37,6.80
2019,01,23,09,38,6.80
2019,01,23,09,39,6.80
2019,01,23,09,41,6.80
2019,01,23,09,42,6.80
2019,01,23,09,43,6.80
2019,01,23,09,44,6.80
2019,01,23,09,46,6.70
2019,01,23,09,47,6.70
2019,01,23,09,48,6.70
2019,01,23,09,49,6.70
2019,01,23,09,51,6.70
2019,01,23,09,52,6.70
2019,01,23,09,53,6.70
2019,01,23,09,54,6.70
2019,01,23,09,56,6.60
2019,01,23,09,57,6.60
2019,01,23,09,58,6.60
2019,01,23,09,59,6.60
2019,01,23,10,01,6.60
2019,01,23,10,02,6.60
2019,01,23,10,03,6.60
2019,01,23,10,04,6.60
2019,01,23,10,06,6.60
2019,01,23,10,07,6.60
2019,01,23,10,08,6.60
2019,01,23,10,09,6.60
2019,01,23,10,11,6.70
2019,01,23,10,12,6.70
2019,01,23,10,13,6.70
2019,01,23,10,14,6.70
2019,01,23,10,16,6.70
2019,01,23,10,17,6.70
2019,01,23,10,18,6.70
2019,01,23,10,19,6.70
2019,01,23,10,21,6.70
2019,01,23,10,22,6.70
2019,01,23,10,23,6.70
2019,01,23,10,24,6.70
2019,01,23,10,26,6.80
2019,01,23,10,27,6.80
2019,01,23,10,28,6.80
2019,01,23,10,29,6.80
2019,01,23,10,31,6.80
2019,01,23,10,32,6.80
2019,01,23,10,33,6.80
2019,01,23,10,34,6.80
2019,01,23,10,36,6.80
2019,01,23,10,37,6.90
2019,01,23,10,38,6.90
2019,01,23,10,39,6.90
2019,01,23,10,40,7.00
2019,01,23,10,41,7.00
2019,01,23,10,42,7.00
2019,01,23,10,43,7.10
2019,01,23,10,44,7.10
2019,01,23,10,45,7.20
2019,01,23,10,46,7.20
2019,01,23,10,47,7.20
2019,01,23,10,48,7.20
2019,01,23,10,49,7.30
2019,01,23,10,50,7.30
2019,01,23,10,51,7.30
2019,01,23,10,52,7.30
2019,01,23,10,53,7.30
2019,01,23,10,54,7.30
2019,01,23,10,55,7.30
2019,01,23,10,56,7.30
2019,01,23,10,57,7.30
2019,01,23,10,58,7.30
2019,01,23,10,59,7.30
2019,01,23,11,00,7.30
2019,01,23,11,01,7.30
2019,01,23,11,02,7.30
2019,01,23,11,03,7.30
2019,01,23,11,04,7.30
2019,01,23,11,05,7.30
2019,01,23,11,06,7.40
2019,01,23,11,07,7.40
2019,01,23,11,08,7.40
2019,01,23,11,09,7.50
2019,01,23,11,10,7.50
2019,01,23,11,11,7.50
2019,01,23,11,12,7.60
2019,01,23,11,13,7.60
2019,01,23,11,14,7.60
2019,01,23,11,15,7.70
2019,01,23,11,16,7.70
2019,01,23,11,17,7.70
2019,01,23,11,18,7.80
2019,01,23,11,19,7.80
2019,01,23,11,20,7.80
2019,01,23,11,21,7.80
2019,01,23,11,22,7.80
2019,01,23,11,23,7.80
2019,01,23,11,24,7.80
2019,01,23,11,25,7.80
2019,01,23,11,26,7.90
2019,01,23,11,27,7.90
2019,01,23,11,28,7.90
2019,01,23,11,29,7.90
2019,01,23,11,30,7.90
2019,01,23,11,31,7.90
2019,01,23,11,32,7.90
2019,01,23,11,33,7.90
2019,01,23,11,34,7.90
2019,01,23,11,35,8.00
2019,01,23,11,36,8.00
2019,01,23,11,37,8.00
2019,01,23,11,38,8.00
2019,01,23,11,39,8.10
2019,01,23,11,40,8.10
2019,01,23,11,41,8.10
2019,01,23,11,42,8.10
2019,01,23,11,43,8.20
2019,01,23,11,44,8.20
2019,01,23,11,45,8.20
2019,01,23,11,46,8.20
2019,01,23,11,47,8.20
2019,01,23,11,48,8.20
2019,01,23,11,49,8.20
2019,01,23,11,50,8.20
2019,01,23,11,51,8.20
2019,01,23,11,52,8.20
2019,01,23,11,53,8.20
2019,01,23,11,54,8.20
2019,01,23,11,55,8.20
2019,01,23,11,56,8.20
2019,01,23,11,57,8.20
2019,01,23,11,58,8.20
2019,01,23,11,59,8.20
2019,01,23,12,00,8.20
2019,01,23,12,01,8.20
2019,01,23,12,02,8.30
2019,01,23,12,03,8.30
2019,01,23,12,04,8.30
2019,01,23,12,05,8.30
2019,01,23,12,06,8.30
2019,01,23,12,07,8.30
2019,01,23,12,08,8.30
2019,01,23,12,09,8.30
2019,01,23,12,10,8.30
2019,01,23,12,11,8.30
2019,01,23,12,12,8.30
2019,01,23,12,13,8.30
2019,01,23,12,14,8.30
2019,01,23,12,15,8.30
2019,01,23,12,16,8.30
2019,01,23,12,17,8.30
2019,01,23,12,18,8.30
2019,01,23,12,19,8.30
2019,01,23,12,20,8.30
2019,01,23,12,21,8.30
2019,01,23,12,22,8.30
2019,01,23,12,23,8.30
2019,01,23,12,24,8.30
2019,01,23,12,25,8.30
2019,01,23,12,26,8.30
2019,01,23,12,27,8.30
2019,01,23,12,28,8.30
2019,01,23,12,29,8.40
2019,01,23,12,30,8.40
2019,01,23,12,32,8.40
2019,01,23,12,33,8.40
2019,01,23,12,34,8.40
2019,01,23,12,35,8.40
2019,01,23,12,36,8.40
2019,01,23,12,37,8.40
2019,01,23,12,38,8.50
2019,01,23,12,39,8.50
2019,01,23,12,40,8.50
2019,01,23,12,41,8.50
2019,01,23,12,42,8.50
2019,01,23,12,43,8.50
2019,01,23,12,44,8.50
2019,01,23,12,45,8.50
2019,01,23,12,46,8.50
2019,01,23,12,47,8.60
2019,01,23,12,48,8.60
2019,01,23,12,49,8.60
2019,01,23,12,50,8.60
2019,01,23,12,51,8.60
2019,01,23,12,52,8.60
2019,01,23,12,53,8.70
2019,01,23,12,54,8.70
2019,01,23,12,55,8.70
2019,01,23,12,56,8.70
2019,01,23,12,57,8.70
2019,01,23,12,58,8.70
2019,01,23,12,59,8.70
2019,01,23,13,00,8.70
2019,01,23,13,01,8.70
2019,01,23,13,02,8.70
2019,01,23,13,03,8.70
2019,01,23,13,04,8.70
2019,01,23,13,05,8.70
2019,01,23,13,06,8.70
2019,01,23,13,07,8.70
2019,01,23,13,08,8.70
2019,01,23,13,09,8.70
2019,01,23,13,10,8.70
2019,01,23,13,12,8.70
2019,01,23,13,13,8.70
2019,01,23,13,14,8.70
2019,01,23,13,16,8.70
2019,01,23,13,17,8.70
2019,01,23,13,18,8.70
2019,01,23,13,19,8.70
2019,01,23,13,21,8.80
2019,01,23,13,22,8.80
2019,01,23,13,23,8.80
2019,01,23,13,24,8.80
2019,01,23,13,26,8.80
2019,01,23,13,27,8.90
2019,01,23,13,28,8.90
2019,01,23,13,29,8.90
2019,01,23,13,31,8.90
2019,01,23,13,32,8.90
2019,01,23,13,33,8.90
2019,01,23,13,34,8.90
2019,01,23,13,36,8.90
2019,01,23,13,37,8.90
2019,01,23,13,38,8.90
2019,01,23,13,39,8.90
2019,01,23,13,41,9.00
2019,01,23,13,42,9.00
2019,01,23,13,43,9.00
2019,01,23,13,44,9.00
2019,01,23,13,46,9.00
2019,01,23,13,47,9.00
2019,01,23,13,48,9.00
2019,01,23,13,49,9.00
2019,01,23,13,51,9.00
2019,01,23,13,52,8.90
2019,01,23,13,53,8.90
2019,01,23,13,54,8.90
2019,01,23,13,56,8.90
2019,01,23,13,57,8.90
2019,01,23,13,58,8.90
2019,01,23,13,59,8.90
2019,01,23,14,01,8.90
2019,01,23,14,02,8.90
2019,01,23,14,03,8.90
2019,01,23,14,04,8.90
2019,01,23,14,06,8.80
2019,01,23,14,07,8.80
2019,01,23,14,08,8.80
2019,01,23,14,09,8.80
2019,01,23,14,11,8.80
2019,01,23,14,12,8.80
2019,01,23,14,13,8.80
2019,01,23,14,14,8.80
2019,01,23,14,16,8.70
2019,01,23,14,17,8.70
2019,01,23,14,18,8.70
2019,01,23,14,19,8.70
2019,01,23,14,21,8.70
2019,01,23,14,22,8.70
2019,01,23,14,23,8.70
2019,01,23,14,24,8.70
2019,01,23,14,26,8.70
2019,01,23,14,27,8.70
2019,01,23,14,28,8.70
2019,01,23,14,29,8.70
2019,01,23,14,31,8.60
2019,01,23,14,32,8.60
2019,01,23,14,33,8.60
2019,01,23,14,34,8.60
2019,01,23,14,35,8.60
2019,01,23,14,36,8.60
2019,01,23,14,37,8.60
2019,01,23,14,38,8.50
2019,01,23,14,39,8.50
2019,01,23,14,40,8.50
2019,01,23,14,41,8.50
2019,01,23,14,42,8.50
2019,01,23,14,43,8.50
2019,01,23,14,44,8.50
2019,01,23,14,45,8.50
2019,01,23,14,46,8.50
2019,01,23,14,47,8.50
2019,01,23,14,48,8.50
2019,01,23,14,49,8.50
2019,01,23,14,50,8.50
2019,01,23,14,51,8.50
2019,01,23,14,52,8.50
2019,01,23,14,53,8.50
2019,01,23,14,54,8.40
2019,01,23,14,55,8.40
2019,01,23,14,56,8.40
2019,01,23,14,57,8.40
2019,01,23,14,58,8.40
2019,01,23,14,59,8.40
2019,01,23,15,00,8.40
2019,01,23,15,01,8.40
2019,01,23,15,02,8.40
2019,01,23,15,03,8.40
2019,01,23,15,04,8.40
2019,01,23,15,05,8.40
2019,01,23,15,06,8.40
2019,01,23,15,07,8.40
2019,01,23,15,08,8.40
2019,01,23,15,09,8.40
2019,01,23,15,10,8.40
2019,01,23,15,11,8.40
2019,01,23,15,12,8.40
2019,01,23,15,13,8.40
2019,01,23,15,14,8.40
2019,01,23,15,15,8.40
2019,01,23,15,16,8.40
2019,01,23,15,17,8.40
2019,01,23,15,18,8.40
2019,01,23,15,19,8.40
2019,01,23,15,20,8.40
2019,01,23,15,21,8.40
2019,01,23,15,22,8.40
2019,01,23,15,23,8.40
2019,01,23,15,24,8.40
2019,01,23,15,25,8.40
2019,01,23,15,26,8.40
2019,01,23,15,27,8.40
2019,01,23,15,28,8.30
2019,01,23,15,29,8.30
2019,01,23,15,30,8.30
2019,01,23,15,31,8.30
2019,01,23,15,32,8.30
2019,01,23,15,33,8.30
2019,01,23,15,34,8.30
2019,01,23,15,35,8.30
2019,01,23,15,36,8.30
2019,01,23,15,37,8.30
2019,01,23,15,38,8.30
2019,01,23,15,39,8.30
2019,01,23,15,40,8.40
2019,01,23,15,41,8.40
2019,01,23,15,42,8.40
2019,01,23,15,43,8.40
2019,01,23,15,44,8.40
2019,01,23,15,45,8.40
2019,01,23,15,46,8.40
2019,01,23,15,47,8.40
2019,01,23,15,48,8.40
2019,01,23,15,49,8.40
2019,01,23,15,50,8.40
2019,01,23,15,51,8.40
2019,01,23,15,52,8.30
2019,01,23,15,53,8.30
2019,01,23,15,54,8.30
2019,01,23,15,55,8.30
2019,01,23,15,56,8.30
2019,01,23,15,57,8.30
2019,01,23,15,58,8.30
2019,01,23,15,59,8.30
2019,01,23,16,00,8.30
2019,01,23,16,01,8.30
2019,01,23,16,02,8.30
2019,01,23,16,03,8.30
2019,01,23,16,04,8.30
2019,01,23,16,05,8.20
2019,01,23,16,06,8.20
2019,01,23,16,07,8.20
2019,01,23,16,08,8.20
2019,01,23,16,09,8.20
2019,01,23,16,10,8.20
2019,01,23,16,11,8.20
2019,01,23,16,12,8.20
2019,01,23,16,13,8.20
2019,01,23,16,14,8.20
2019,01,23,16,15,8.20
2019,01,23,16,16,8.20
2019,01,23,16,17,8.20
2019,01,23,16,18,8.20
2019,01,23,16,19,8.10
2019,01,23,16,20,8.10
2019,01,23,16,21,8.10
2019,01,23,16,22,8.10
2019,01,23,16,23,8.10
2019,01,23,16,24,8.10
2019,01,23,16,25,8.10
2019,01,23,16,26,8.10
2019,01,23,16,27,8.10
2019,01,23,16,28,8.10
2019,01,23,16,29,8.10
2019,01,23,16,30,8.10
2019,01,23,16,31,8.10
2019,01,23,16,32,8.10
2019,01,23,16,33,8.10
2019,01,23,16,34,8.10
2019,01,23,16,35,8.10
2019,01,23,16,36,8.10
2019,01,23,16,37,8.10
2019,01,23,16,38,8.10
2019,01,23,16,39,8.10
2019,01,23,16,40,8.10
2019,01,23,16,41,8.10
2019,01,23,16,42,8.10
2019,01,23,16,43,8.10
2019,01,23,16,44,8.10
2019,01,23,16,45,8.10
2019,01,23,16,46,8.10
2019,01,23,16,47,8.10
2019,01,23,16,48,8.10
2019,01,23,16,49,8.10
2019,01,23,16,50,8.10
2019,01,23,16,51,8.10
2019,01,23,16,52,8.10
2019,01,23,16,53,8.10
2019,01,23,16,54,8.10
2019,01,23,16,55,8.10
2019,01,23,16,56,8.10
2019,01,23,16,57,8.10
2019,01,23,16,58,8.10
2019,01,23,16,59,8.10
2019,01,23,17,00,8.10
2019,01,23,17,01,8.00
2019,01,23,17,02,8.00
2019,01,23,17,03,8.00
2019,01,23,17,04,8.00
2019,01,23,17,05,8.00
2019,01,23,17,06,8.00
2019,01,23,17,07,8.00
2019,01,23,17,08,8.00
2019,01,23,17,09,8.00
2019,01,23,17,10,8.00
2019,01,23,17,11,8.00
2019,01,23,17,12,8.00
2019,01,23,17,13,8.00
2019,01,23,17,14,8.00
2019,01,23,17,15,8.00
2019,01,23,17,16,7.90
2019,01,23,17,17,7.90
2019,01,23,17,18,7.90
2019,01,23,17,19,7.90
2019,01,23,17,20,7.90
2019,01,23,17,21,7.90
2019,01,23,17,22,7.90
2019,01,23,17,23,7.90
2019,01,23,17,24,7.90
2019,01,23,17,25,7.90
2019,01,23,17,26,7.90
2019,01,23,17,27,7.90
2019,01,23,17,28,7.90
2019,01,23,17,29,7.90
2019,01,23,17,30,7.90
2019,01,23,17,31,7.90
2019,01,23,17,32,7.90
2019,01,23,17,33,7.90
2019,01,23,17,34,7.90
2019,01,23,17,35,7.90
2019,01,23,17,36,7.90
2019,01,23,17,37,7.90
2019,01,23,17,38,7.90
2019,01,23,17,39,7.90
2019,01,23,17,40,7.90
2019,01,23,17,41,7.90
2019,01,23,17,42,7.90
2019,01,23,17,44,7.90
2019,01,23,17,45,7.90
2019,01,23,17,47,7.90
2019,01,23,17,48,7.80
2019,01,23,17,49,7.80
2019,01,23,17,51,7.80
2019,01,23,17,52,7.80
2019,01,23,17,53,7.80
2019,01,23,17,54,7.80
2019,01,23,17,56,7.80
2019,01,23,17,57,7.80
2019,01,23,17,58,7.80
2019,01,23,17,59,7.80
2019,01,23,18,01,7.80
2019,01,23,18,02,7.80
2019,01,23,18,03,7.80
2019,01,23,18,04,7.80
2019,01,23,18,06,7.80
2019,01,23,18,07,7.80
2019,01,23,18,08,7.80
2019,01,23,18,09,7.80
2019,01,23,18,11,7.80
2019,01,23,18,12,7.80
2019,01,23,18,13,7.80
2019,01,23,18,14,7.80
2019,01,23,18,16,7.80
2019,01,23,18,17,7.80
2019,01,23,18,18,7.80
2019,01,23,18,19,7.80
2019,01,23,18,21,7.80
2019,01,23,18,22,7.80
2019,01,23,18,23,7.80
2019,01,23,18,24,7.70
2019,01,23,18,26,7.70
2019,01,23,18,27,7.70
2019,01,23,18,28,7.70
2019,01,23,18,29,7.70
2019,01,23,18,30,7.70
2019,01,23,18,32,7.70
2019,01,23,18,33,7.70
2019,01,23,18,34,7.70
2019,01,23,18,36,7.70
2019,01,23,18,37,7.70
2019,01,23,18,38,7.70
2019,01,23,18,39,7.70
2019,01,23,18,41,7.70
2019,01,23,18,42,7.70
2019,01,23,18,43,7.70
2019,01,23,18,44,7.70
2019,01,23,18,46,7.70
2019,01,23,18,47,7.70
2019,01,23,18,48,7.70
2019,01,23,18,49,7.60
2019,01,23,18,51,7.60
2019,01,23,18,52,7.60
2019,01,23,18,53,7.60
2019,01,23,18,54,7.60
2019,01,23,18,56,7.60
2019,01,23,18,57,7.60
2019,01,23,18,58,7.60
2019,01,23,18,59,7.60
2019,01,23,19,01,7.60
2019,01,23,19,02,7.60
2019,01,23,19,03,7.60
2019,01,23,19,04,7.60
2019,01,23,19,06,7.60
2019,01,23,19,07,7.60
2019,01,23,19,08,7.60
2019,01,23,19,09,7.60
2019,01,23,19,11,7.60
2019,01,23,19,12,7.60
2019,01,23,19,13,7.60
2019,01,23,19,14,7.60
2019,01,23,19,15,7.50
2019,01,23,19,16,7.50
2019,01,23,19,17,7.50
2019,01,23,19,18,7.50
2019,01,23,19,19,7.50
2019,01,23,19,20,7.50
2019,01,23,19,21,7.50
2019,01,23,19,22,7.50
2019,01,23,19,23,7.50
2019,01,23,19,24,7.50
2019,01,23,19,25,7.50
2019,01,23,19,26,7.50
2019,01,23,19,27,7.50
2019,01,23,19,28,7.50
2019,01,23,19,29,7.50
2019,01,23,19,30,7.50
2019,01,23,19,31,7.50
2019,01,23,19,32,7.50
2019,01,23,19,33,7.50
2019,01,23,19,34,7.50
2019,01,23,19,35,7.50
2019,01,23,19,36,7.50
2019,01,23,19,37,7.50
2019,01,23,19,38,7.50
2019,01,23,19,39,7.50
2019,01,23,19,40,7.50
2019,01,23,19,41,7.50
2019,01,23,19,42,7.50
2019,01,23,19,43,7.50
2019,01,23,19,44,7.50
2019,01,23,19,45,7.50
2019,01,23,19,46,7.50
2019,01,23,19,47,7.50
2019,01,23,19,48,7.50
2019,01,23,19,49,7.50
2019,01,23,19,50,7.50
2019,01,23,19,51,7.50
2019,01,23,19,52,7.50
2019,01,23,19,53,7.50
2019,01,23,19,54,7.50
2019,01,23,19,55,7.50
2019,01,23,19,56,7.50
2019,01,23,19,57,7.50
2019,01,23,19,58,7.50
2019,01,23,19,59,7.40
2019,01,23,20,00,7.40
2019,01,23,20,01,7.40
2019,01,23,20,02,7.40
2019,01,23,20,03,7.40
2019,01,23,20,04,7.40
2019,01,23,20,05,7.40
2019,01,23,20,06,7.40
2019,01,23,20,07,7.40
2019,01,23,20,08,7.40
2019,01,23,20,09,7.40
2019,01,23,20,10,7.30
2019,01,23,20,11,7.30
2019,01,23,20,12,7.30
2019,01,23,20,13,7.30
2019,01,23,20,14,7.30
2019,01,23,20,15,7.30
2019,01,23,20,16,7.30
2019,01,23,20,17,7.30
2019,01,23,20,18,7.30
2019,01,23,20,19,7.30
2019,01,23,20,20,7.30
2019,01,23,20,21,7.30
2019,01,23,20,22,7.30
2019,01,23,20,23,7.30
2019,01,23,20,24,7.30
2019,01,23,20,25,7.20
2019,01,23,20,26,7.20
2019,01,23,20,27,7.20
2019,01,23,20,28,7.20
2019,01,23,20,29,7.20